Location: Krakow
(50.0830°N, 19.9170°E)
Time: 12:51:38
(UTC+01:00)

Vanguard 2 - Visible Passes

Search period start: 15 March 2026 00:00
Search period end: 25 March 2026 00:00
Orbit: 553 x 2896 km, 32.9° (Epoch: 14 March)

Date Brightness Start Highest point End Pass type
(mag) Time Alt. Az. Time Alt. Az. Time Alt. Az.
15 Mar 10.9 19:25:37 10° SSW 19:37:16 24° SE 19:41:52 22° SE visible
15 Mar 10.7 21:31:32 10° SW 21:42:50 36° S 21:42:50 36° S visible
15 Mar 11.5 23:40:58 10° WSW 23:43:49 16° WSW 23:43:49 16° WSW visible
16 Mar 10.8 19:36:02 10° SSW 19:48:28 28° SSE 19:53:30 25° SE visible
16 Mar 10.7 21:42:46 10° SW 21:54:28 38° SSW 21:54:28 38° SSW visible
16 Mar 11.5 23:52:35 10° WSW 23:55:25 16° WSW 23:55:25 16° WSW visible
17 Mar 10.7 19:46:45 10° SSW 19:59:44 32° SSE 20:05:01 27° SE visible
17 Mar 10.6 21:54:07 10° WSW 22:05:58 39° SSW 22:05:58 39° SSW visible
18 Mar 11.5 00:04:16 10° WSW 00:06:55 16° WSW 00:06:55 16° WSW visible
18 Mar 10.7 19:57:41 10° SW 20:11:02 35° SSE 20:16:24 30° SE visible
18 Mar 10.6 22:05:34 10° WSW 22:17:21 39° SSW 22:17:21 39° SSW visible
19 Mar 11.5 00:16:01 10° WSW 00:18:18 15° WSW 00:18:18 15° WSW visible
19 Mar 11.0 18:04:07 10° S 18:13:44 21° SE 18:24:53 10° E visible
19 Mar 10.6 20:08:47 10° SW 20:22:23 38° SSE 20:27:41 32° SE visible
19 Mar 10.7 22:17:05 10° WSW 22:28:38 38° SSW 22:28:38 38° SSW visible
20 Mar 11.6 00:27:53 10° W 00:29:34 13° WSW 00:29:34 13° WSW visible
20 Mar 10.9 18:14:29 10° SSW 18:24:51 25° SE 18:37:12 10° E visible
20 Mar 10.6 20:20:02 10° SW 20:33:47 40° SSE 20:38:53 34° SE visible
20 Mar 10.7 22:28:41 10° WSW 22:39:48 37° SW 22:39:48 37° SW visible
21 Mar 11.6 00:39:53 10° W 00:40:45 12° WSW 00:40:45 12° WSW visible
21 Mar 10.8 18:25:10 10° SSW 18:36:02 29° SSE 18:49:04 10° E visible
21 Mar 10.5 20:31:22 10° SW 20:45:12 41° S 20:49:58 36° SE visible
21 Mar 10.8 22:40:21 10° WSW 22:50:54 35° SW 22:50:54 35° SW visible
22 Mar 10.7 18:36:05 10° SSW 18:47:16 32° SSE 19:00:04 12° ESE visible
22 Mar 10.5 20:42:49 10° WSW 20:56:38 42° S 21:00:59 37° SSE visible
22 Mar 10.9 22:52:05 10° WSW 23:01:54 32° SW 23:01:54 32° SW visible
23 Mar 10.6 18:47:10 10° SW 18:58:34 35° SSE 19:11:02 14° ESE visible
23 Mar 10.5 20:54:20 10° WSW 21:08:06 42° S 21:11:57 38° SSE visible
23 Mar 11.0 23:03:55 10° WSW 23:12:51 29° SW 23:12:51 29° SW visible
24 Mar 10.6 18:58:25 10° SW 19:09:55 37° SSE 19:21:56 16° ESE visible
24 Mar 10.5 21:05:56 10° WSW 21:19:33 41° S 21:22:51 38° SSE visible
24 Mar 11.1 23:15:52 10° W 23:23:45 25° SW 23:23:45 25° SW visible
